Location: Saint-Restitut
(44.3351°N, 4.7915°E)
Time: 07:21:08
(UTC+00:00)

CZ-4B R/B - Pass Details

Date: 03 February 2023
Orbit: 809 x 881 km, 99.0° (Epoch: 26 March)

Event Time Altitude Azimuth Distance (km) Brightness Sun altitude
Rises 17:48:16 0° 140° (SE) 3,333 6.0 -10.3°
Reaches altitude 10° 17:50:43 10° 132° (SE) 2,413 5.2 -10.7°
Maximum altitude 17:55:35 37° 66° (ENE) 1,265 3.6 -11.6°
Drops below altitude 10° 18:00:33 10° 1° (N) 2,468 5.5 -12.4°
Sets 18:03:05 0° 353° (N) 3,419 6.3 -12.9°
